St. John's, Canada

12:27 AM NDT on March 27, 2017 (GMT -0230)
St. John's International

Weather History for CYYT - October, 2012

Change the Weather History Date:

Wednesday, October 10, 2012

  Actual Average Record
Temperature  
Mean Temperature 46 °F -  
Max Temperature 52 °F 48 °F 62 °F (2000)
Min Temperature 41 °F 36 °F 30 °F (2002)
Degree Days  
Heating Degree Days 18    
Moisture  
Dew Point 40 °F    
Average Humidity 77    
Maximum Humidity 87    
Minimum Humidity 65    
Precipitation  
Precipitation 0.00 in 0.20 in - ()
Sea Level Pressure  
Sea Level Pressure 30.25 in    
Wind  
Wind Speed 8 mph ()    
Max Wind Speed 16 mph    
Max Gust Speed 22 mph    
Visibility 15.0 miles    
Events      
Averages and records for this station are not official NWS values.
T = Trace of Precipitation, MM = Missing Value Source: Averaged Metar Reports

Daily Weather History Graph

Daily Weather History Graph

Search for Another Location

Airport or City:

Trip Planner

Search our weather history database for the weather conditions in past years. The results will help you decide how hot, cold, wet, or windy it might be!

Date:

Astronomy

Oct. 10, 2012 Rise Set
Actual Time 7:13 AM NDT 6:21 PM NDT
Civil Twilight 6:42 AM NDT 6:52 PM NDT
Nautical Twilight 6:06 AM NDT 7:28 PM NDT
Astronomical Twilight 5:30 AM NDT 8:03 PM NDT
Moon 1:21 AM NDT (10/10) 3:39 PM NDT (10/10)
Length of Visible Light 12h 10m
Length of Day
11h 08m
Waning Crescent, 28% of the Moon is Illuminated
Oct 10
Waning Crescent
Oct 15
New
Oct 22
First Quarter
Oct 29
Full
Nov 6
Last Quarter

Hourly Weather History & Observations

Time (NDT) Temp. Windchill Dew Point Humidity Pressure Visibility Wind Dir Wind Speed Gust Speed Precip Events Conditions
12:30 AM 46.4 °F 44.3 °F 41.0 °F 81% 30.37 in 15.0 mi ESE 4.6 mph - N/A   Overcast
1:30 AM 46.4 °F 44.3 °F 41.0 °F 81% 30.34 in 15.0 mi East 4.6 mph - N/A   Overcast
2:30 AM 46.4 °F 42.9 °F 41.0 °F 81% 30.32 in 15.0 mi East 6.9 mph - N/A   Overcast
3:30 AM 46 °F - 41 °F 75% 30.32 in 15 mi East 5.8 mph - -   Overcast
3:30 AM 46.4 °F 43.5 °F 41.0 °F 81% 30.32 in 15.0 mi East 5.8 mph - N/A   Overcast
4:30 AM 44.6 °F 40.7 °F 41.0 °F 87% 30.31 in 15.0 mi ENE 6.9 mph - N/A   Overcast
5:30 AM 44.6 °F 40.2 °F 39.2 °F 81% 30.29 in 15.0 mi ENE 8.1 mph - N/A   Overcast
6:30 AM 44.6 °F 38.8 °F 39.2 °F 81% 30.29 in 15.0 mi ENE 11.5 mph - N/A   Mostly Cloudy
7:30 AM 44.6 °F 38.8 °F 39.2 °F 81% 30.28 in 15.0 mi ENE 11.5 mph - N/A   Mostly Cloudy
8:30 AM 46.4 °F 39.8 °F 39.2 °F 76% 30.28 in 15.0 mi ENE 16.1 mph - N/A   Overcast
9:30 AM 47 °F - 39 °F 65% 30.27 in 15 mi ENE 15.0 mph - -   Overcast
9:30 AM 46.4 °F 40.4 °F 39.2 °F 76% 30.26 in 15.0 mi ENE 13.8 mph 20.7 mph N/A   Overcast
10:30 AM 48.2 °F - 41.0 °F 76% 30.26 in 15.0 mi East 15.0 mph 21.9 mph N/A   Overcast
11:30 AM 50.0 °F - 42.8 °F 76% 30.26 in 15.0 mi ENE 15.0 mph 20.7 mph N/A   Mostly Cloudy
12:30 PM 50.0 °F - 41.0 °F 71% 30.25 in 15.0 mi East 13.8 mph 20.7 mph N/A   Mostly Cloudy
1:30 PM 50.0 °F - 41.0 °F 71% 30.23 in 15.0 mi NE 12.7 mph - N/A   Mostly Cloudy
2:30 PM 48.2 °F - 41.0 °F 76% 30.21 in 15.0 mi ENE 12.7 mph 20.7 mph N/A   Mostly Cloudy
3:30 PM 48 °F - 40 °F 66% 30.21 in 15 mi ENE 11.5 mph - -   Mostly Cloudy
3:30 PM 48.2 °F - 41.0 °F 76% 30.21 in 15.0 mi ENE 11.5 mph - N/A   Mostly Cloudy
4:30 PM 48.2 °F - 41.0 °F 76% 30.20 in 15.0 mi ENE 11.5 mph - N/A   Mostly Cloudy
5:30 PM 46.4 °F 41.9 °F 41.0 °F 81% 30.18 in 15.0 mi East 9.2 mph - N/A   Mostly Cloudy
6:30 PM 46.4 °F 41.5 °F 39.2 °F 76% 30.19 in 15.0 mi East 10.4 mph - N/A   Overcast
7:30 PM 46.4 °F 41.9 °F 39.2 °F 76% 30.19 in 15.0 mi East 9.2 mph - N/A   Mostly Cloudy
8:30 PM 44.6 °F 41.4 °F 39.2 °F 81% 30.19 in 15.0 mi East 5.8 mph - N/A   Mostly Cloudy
9:30 PM 45 °F - 38 °F 68% 30.18 in 15 mi East 9.2 mph - -   Mostly Cloudy
9:30 PM 44.6 °F 40.7 °F 37.4 °F 76% 30.18 in 15.0 mi East 6.9 mph - N/A   Mostly Cloudy
10:30 PM 41.0 °F 36.4 °F 37.4 °F 87% 30.16 in 15.0 mi East 6.9 mph - N/A   Mostly Cloudy
11:30 PM 42.8 °F 38.6 °F 37.4 °F 81% 30.14 in 15.0 mi East 6.9 mph - N/A   Mostly Cloudy